Zurück zum Katalog

STARLINK-37420

AktivKommunikationVLEO
NORAD 69511·PAYLOAD·🇺🇸 United States

Gestartet Jun 12, 2026 von Cape Canaveral Space Force Station

Loading…

Nächste Überflüge (nächste 24 Stunden)

TLE

AktuellSource: CelesTrak SupGP

Epoche: Sep 15, 2026, 03:45 UTC

1 69511C 26133D   26258.15673611 -.00040082  00000+0 -11841-2 0  2580
2 69511  53.1566 254.8626 0001400  90.6321 185.3517 15.34412742    13

Verfolge STARLINK-37420 in Echtzeit mit AllMySat

Download on the App Store